[[{"header":{"parameterUnit":"m.s-1","parameterCategory":2,"la1":30.2991,"la2":30.254,"lo1":-89.0895,"lo2":-89.0444,"dy":0.0017,"dx":0.0017,"nx":28,"ny":28,"refTime":"2024-03-31T03:00:00:Z","depth":"0","parameterNumber":2,"parameterNumberName":"U-component_of_CURRENTS"},"data":[0,0,0,0,0,0,0,0,0,0,0,0,0,0,0,0,0,0,0,0,0,0,0,0,0,0,0,0,0,0,0,0,0,0,0,0,0,0,0,0,0,0,0,0,0,0,0,0,0,0,0,0,0,0,0,0,0,0,-0.3357,-0.3359,0,-0.3446,-0.3446,-0.3447,-0.3457,-0.3456,-0.3456,-0.3456,-0.3507,-0.3508,-0.351,0,0,0,0,0,0,0,0,0,0,0,0,0,-0.3159,-0.3162,-0.3357,-0.3359,-0.3361,-0.3446,-0.3446,-0.3447,-0.3457,-0.3456,-0.3456,-0.3456,-0.3506,-0.3508,-0.351,0,0,0,0,0,0,0,0,0,0,0,0,0,-0.324,-0.3163,-0.3357,-0.3381,-0.3384,-0.3446,-0.3446,-0.3447,-0.3457,-0.3456,-0.3456,-0.3456,-0.3506,-0.3508,-0.351,-0.3534,0,0,-0.3518,-0.3519,0,0,0,0,0,0,0,0,-0.3235,-0.3246,-0.3375,-0.3379,-0.3383,-0.3446,-0.3396,-0.3476,-0.3457,-0.3422,-0.3456,-0.3455,-0.3487,-0.3491,-0.35,-0.3536,-0.3538,-0.3518,-0.3519,-0.352,-0.3521,0,0,0,0,0,0,0,-0.323,-0.3242,-0.3385,-0.3377,-0.3382,-0.3375,-0.3385,-0.341,-0.345,-0.3425,-0.3428,-0.3448,-0.3488,-0.3498,-0.3501,-0.3539,-0.3518,-0.352,-0.3522,-0.3522,-0.3544,-0.3544,0,0,0,0,0,0,-0.3235,-0.3238,-0.3383,-0.3389,-0.3314,-0.3379,-0.3391,-0.3421,-0.3451,-0.3457,-0.3449,-0.3449,-0.3494,-0.3498,-0.3503,-0.346,-0.352,-0.3523,-0.3524,-0.3545,-0.3544,-0.3543,0,0,0,0,0,0,-0.3231,-0.3248,-0.3379,-0.3319,-0.3336,-0.3384,-0.3417,-0.3423,-0.3431,-0.347,-0.3475,-0.3452,-0.3494,-0.35,-0.3511,-0.3465,-0.3524,-0.3526,-0.3546,-0.3545,-0.3544,-0.342,0,0,0,0,0,0,-0.3225,-0.3246,-0.3252,-0.332,-0.3341,-0.3391,-0.3418,-0.3425,-0.3448,-0.3448,-0.3475,-0.3479,-0.3494,-0.3507,-0.3514,-0.3469,-0.3528,-0.3547,-0.3546,-0.3544,-0.3426,-0.3415,-0.3406,0,0,0,0,0,-0.3217,-0.3216,-0.3252,-0.3269,-0.3354,-0.339,-0.3397,-0.3425,-0.3448,-0.3434,-0.3461,-0.3478,-0.3501,-0.3509,-0.3517,-0.3471,-0.3548,-0.3546,-0.3544,-0.343,-0.3417,-0.3406,0,0,0,0,0,0,-0.3118,-0.3221,-0.326,-0.3287,-0.3332,-0.3394,-0.3385,-0.3426,-0.3438,-0.3437,-0.3477,-0.3482,-0.3463,-0.3501,-0.3509,-0.3476,-0.3524,-0.3524,-0.3435,-0.3423,-0.3413,-0.3416,-0.353,0,0,0,0,0,-0.311,-0.3139,-0.323,-0.3245,-0.3268,-0.3333,-0.335,-0.3378,-0.3413,-0.3418,-0.3442,-0.3463,-0.3463,-0.3471,-0.3476,-0.3477,-0.3487,-0.3452,-0.3442,-0.3434,-0.3443,-0.3413,-0.34,-0.3537,-0.3537,-0.3537,0,0,-0.3077,-0.3135,-0.3151,-0.3226,-0.3262,-0.3289,-0.3338,-0.3358,-0.3368,-0.3422,-0.3418,-0.3426,-0.3455,-0.3431,-0.3428,-0.3457,-0.3395,-0.3431,-0.3423,-0.3438,-0.3409,-0.3395,-0.3383,-0.3536,-0.3536,-0.3536,0,0,-0.3027,-0.3077,-0.3093,-0.313,-0.3194,-0.3235,-0.3244,-0.3307,-0.3313,-0.333,-0.3351,-0.3338,-0.3368,-0.3358,-0.3365,-0.3317,-0.3337,-0.3319,-0.3278,-0.3246,-0.3234,-0.3224,-0.3192,-0.318,-0.3322,-0.3321,-0.3321,0,-0.2985,-0.3031,-0.3093,-0.3117,-0.3144,-0.3213,-0.3229,-0.3246,-0.3298,-0.3303,-0.3309,-0.3319,-0.3327,-0.3302,-0.3273,-0.3288,-0.3285,-0.3312,-0.323,-0.3221,-0.3212,-0.3182,-0.317,-0.3315,-0.3316,-0.3317,-0.3317,0,-0.2962,-0.2996,-0.2996,-0.3064,-0.3088,-0.3103,-0.3161,-0.3169,-0.3195,-0.3222,-0.32,-0.3202,-0.3217,-0.3196,-0.322,-0.3163,-0.3181,-0.3208,-0.3252,-0.319,-0.3163,-0.3153,-0.3306,-0.3309,-0.331,-0.3312,0,0,-0.2884,-0.2971,-0.2971,-0.3001,-0.3066,-0.3087,-0.3093,-0.3127,-0.3138,-0.3138,-0.3139,-0.3101,-0.3113,-0.3123,-0.3131,-0.3098,-0.3008,-0.3128,-0.3129,-0.3082,-0.2936,-0.2848,-0.283,-0.3019,-0.3017,-0.3016,-0.293,0,-0.2852,-0.289,-0.294,-0.2958,-0.2984,-0.3042,-0.3049,-0.3078,-0.3097,-0.3105,-0.3089,-0.3086,-0.3084,-0.3083,-0.3042,-0.3037,-0.2982,-0.3029,-0.3018,-0.3018,-0.2935,-0.2815,-0.2705,-0.2611,-0.2921,-0.2919,-0.2918,0,-0.2814,-0.2853,-0.2874,-0.2938,-0.2953,-0.2965,-0.3001,-0.3019,-0.3042,-0.3058,-0.3048,-0.3061,-0.3018,-0.3024,-0.295,-0.2985,-0.2945,-0.2925,-0.2922,-0.2883,-0.291,-0.2731,-0.2582,-0.2557,-0.2903,-0.2904,-0.2905,0,-0.2736,-0.2799,-0.2816,-0.2837,-0.2916,-0.2922,-0.2954,-0.299,-0.3003,-0.3027,-0.3035,-0.3011,-0.2994,-0.2948,-0.2907,-0.293,-0.2823,-0.2854,-0.2727,-0.2722,-0.2649,-0.2639,-0.2464,-0.2769,-0.2769,-0.2769,-0.277,0,-0.2687,-0.2696,-0.2781,-0.2792,-0.2799,-0.2872,-0.2875,-0.2912,-0.2955,-0.2959,-0.2998,-0.2986,-0.2972,-0.2926,-0.2889,-0.2765,-0.2802,-0.2687,-0.2677,-0.26,-0.2587,-0.2585,-0.2633,-0.2766,-0.2767,-0.2768,-0.2768,0,-0.2591,-0.2656,-0.2673,-0.2747,-0.2762,-0.2761,-0.2822,-0.2837,-0.2892,-0.2898,-0.2906,-0.2944,-0.2883,-0.2849,-0.2776,-0.2719,-0.2579,-0.258,-0.2487,-0.2465,-0.231,-0.2358,-0.2223,-0.2161,-0.2412,-0.2409,-0.2407,0,-0.2544,-0.2544,-0.2607,-0.2616,-0.2643,-0.2667,-0.2688,-0.2775,-0.2799,-0.2861,-0.2856,-0.2827,-0.2772,-0.2638,-0.254,-0.2422,-0.2446,-0.2264,-0.2267,-0.2244,-0.2292,-0.2338,-0.23,-0.2121,-0.2116,-0.2113,-0.211,0,-0.2432,-0.2452,-0.247,-0.2491,-0.2513,-0.2531,-0.2572,-0.2584,-0.2686,-0.2696,-0.2688,-0.2651,-0.2552,-0.2381,-0.2252,-0.2182,-0.2207,-0.2179,-0.2175,-0.2044,-0.2065,-0.2021,-0.2255,-0.2076,-0.2079,-0.2082,-0.2084,-0.2085,-0.2319,-0.2303,-0.2329,-0.2329,-0.236,-0.2355,-0.2318,-0.2393,-0.2387,-0.2378,-0.2449,-0.2353,-0.227,-0.2057,-0.1987,-0.1834,-0.1928,-0.1783,-0.1841,-0.1889,-0.1817,-0.1964,-0.1767,-0.1769,-0.177,-0.1771,-0.1772,0,-0.2166,-0.2166,-0.2168,-0.2161,-0.2125,-0.2192,-0.2207,-0.2157,-0.2102,-0.2139,-0.2089,-0.1974,-0.1814,-0.1766,-0.1622,-0.1535,-0.1519,-0.1514,-0.1563,-0.1539,-0.1661,-0.1634,-0.1375,-0.1375,-0.1375,-0.1375,-0.1375,-0.1375,-0.2084,-0.2027,-0.2031,-0.1908,-0.1905,-0.1802,-0.1769,-0.1738,-0.1728,-0.1624,-0.1587,-0.1572,-0.1566,-0.1635,-0.1502,-0.1422,-0.1413,-0.136,-0.1407,-0.1523,-0.1554,-0.1583,-0.1563,-0.1294,-0.1294,-0.1212,-0.1212,-0.1212]},{"header":{"parameterUnit":"m.s-1","parameterCategory":2,"la1":30.2991,"la2":30.254,"lo1":-89.0895,"lo2":-89.0444,"dy":0.0017,"dx":0.0017,"nx":28,"ny":28,"refTime":"2024-03-31T03:00:00:Z","depth":"0","parameterNumber":3,"parameterNumberName":"V-component_of_CURRENTS"},"data":[0,0,0,0,0,0,0,0,0,0,0,0,0,0,0,0,0,0,0,0,0,0,0,0,0,0,0,0,0,0,0,0,0,0,0,0,0,0,0,0,0,0,0,0,0,0,0,0,0,0,0,0,0,0,0,0,0,0,-0.0132,-0.0131,0,-0.0021,-0.002,-0.0019,0.006,0.006,0.0061,0.0062,0.0281,0.0286,0.0292,0,0,0,0,0,0,0,0,0,0,0,0,0,-0.0226,-0.0226,-0.0133,-0.0131,-0.0129,-0.0021,-0.002,-0.0019,0.0059,0.006,0.0061,0.0062,0.028,0.0286,0.0292,0,0,0,0,0,0,0,0,0,0,0,0,0,-0.0159,-0.0225,-0.0133,-0.0077,-0.007,-0.0022,-0.002,-0.0018,0.0059,0.006,0.0061,0.0062,0.0278,0.0285,0.0293,0.0319,0,0,0.0317,0.032,0,0,0,0,0,0,0,0,-0.0163,-0.0156,-0.0086,-0.008,-0.0073,0.0008,0.0028,0.01,0.0059,0.0009,0.0062,0.0063,0.02,0.0214,0.0229,0.0329,0.0338,0.0317,0.0322,0.0325,0.0327,0,0,0,0,0,0,0,-0.0168,-0.016,-0.009,-0.0085,-0.0077,-0.0039,-0.0029,0.0041,0.0098,0.0013,0.0019,0.0033,0.0204,0.0221,0.0235,0.0342,0.0317,0.0324,0.0329,0.0332,0.0494,0.0493,0,0,0,0,0,0,-0.0183,-0.0165,-0.0093,-0.0086,-0.0115,-0.0039,-0.0027,-0.0021,0.0095,0.0113,0.0032,0.0037,0.0208,0.0226,0.0244,0.0268,0.0325,0.0333,0.0337,0.0494,0.0494,0.0493,0,0,0,0,0,0,-0.0185,-0.0178,-0.0098,-0.0121,-0.0108,-0.0039,-0.0031,-0.0019,-0.0003,0.0109,0.0129,0.0035,0.0209,0.0233,0.0298,0.0278,0.0336,0.0343,0.0494,0.0494,0.0493,0.0327,0,0,0,0,0,0,-0.0189,-0.018,-0.0189,-0.0123,-0.0107,-0.0086,-0.0032,-0.0017,0.0005,0.0011,0.0118,0.0139,0.0212,0.0285,0.0305,0.029,0.0349,0.0495,0.0494,0.0494,0.0332,0.032,0.031,0,0,0,0,0,-0.0193,-0.0213,-0.019,-0.0182,-0.012,-0.0087,-0.0077,-0.0023,0.0003,-0.0003,0.0074,0.0136,0.0296,0.0291,0.0315,0.0301,0.0495,0.0494,0.0494,0.0338,0.0323,0.031,0,0,0,0,0,0,-0.0263,-0.0205,-0.0179,-0.0182,-0.0143,-0.0073,-0.0075,-0.0036,0.0017,0.0026,0.0131,0.0158,0.0203,0.028,0.0272,0.0348,0.0406,0.041,0.028,0.0267,0.0256,0.0256,0.0356,0,0,0,0,0,-0.0282,-0.0281,-0.0219,-0.0224,-0.021,-0.0145,-0.0127,-0.0091,-0.0031,-0.0008,0.0069,0.0154,0.0218,0.0263,0.033,0.0376,0.0443,0.0385,0.0374,0.0363,0.0382,0.0439,0.0434,0.0491,0.0491,0.0491,0,0,-0.0307,-0.0279,-0.0276,-0.0238,-0.0205,-0.0193,-0.0133,-0.0117,-0.0101,0.001,0.0048,0.0112,0.0219,0.026,0.029,0.0324,0.0379,0.0362,0.0352,0.0377,0.0437,0.0432,0.0427,0.049,0.049,0.049,0,0,-0.0358,-0.0337,-0.0349,-0.0325,-0.0284,-0.0243,-0.0244,-0.0181,-0.0152,-0.0108,-0.0031,0.0021,0.013,0.0192,0.0242,0.0216,0.0308,0.0238,0.0192,0.0245,0.024,0.0237,0.0292,0.0295,0.0241,0.0241,0.0241,0,-0.0391,-0.0395,-0.035,-0.0355,-0.034,-0.0271,-0.0279,-0.0241,-0.0165,-0.0138,-0.0114,0.0024,0.0098,0.0162,0.0151,0.0189,0.024,0.0224,0.0227,0.0226,0.0226,0.0283,0.0288,0.0233,0.0234,0.0235,0.0235,0,-0.0442,-0.0446,-0.0457,-0.0434,-0.0416,-0.0417,-0.0355,-0.0335,-0.029,-0.0237,-0.0179,-0.0088,0.0003,0.0019,0.0083,0.0117,0.0159,0.019,0.0251,0.0209,0.0273,0.0281,0.0221,0.0224,0.0227,0.0229,0,0,-0.0504,-0.0495,-0.0495,-0.0502,-0.046,-0.0451,-0.0432,-0.0387,-0.0368,-0.0302,-0.0267,-0.0179,-0.0125,-0.0063,0.0008,0.0058,0.0079,0.012,0.0127,0.0156,0.02,0.0265,0.0281,0.0105,0.0106,0.0107,0.0235,0,-0.0554,-0.0594,-0.0562,-0.0587,-0.0602,-0.0539,-0.0524,-0.0474,-0.0418,-0.0368,-0.0276,-0.0217,-0.0156,-0.0123,-0.0067,0.0054,0.01,0.0043,0.0256,0.0263,0.0309,0.0293,0.0331,0.0453,0.0245,0.0246,0.0248,0,-0.0607,-0.0628,-0.067,-0.0667,-0.0665,-0.0662,-0.0625,-0.0602,-0.0512,-0.0466,-0.039,-0.0304,-0.0208,-0.0164,0.0014,-0.0024,0.0077,0.0162,0.0169,0.0304,0.0345,0.047,0.0478,0.0628,0.0262,0.0261,0.026,0,-0.0679,-0.0698,-0.0739,-0.0739,-0.0723,-0.0722,-0.0704,-0.0634,-0.0611,-0.0523,-0.0491,-0.0363,-0.0288,-0.0154,0.0036,0.0024,0.0236,0.024,0.0391,0.0397,0.0515,0.0529,0.0686,0.0353,0.0352,0.0352,0.0351,0,-0.0748,-0.0777,-0.0779,-0.0803,-0.0842,-0.0797,-0.0808,-0.0768,-0.0698,-0.0661,-0.0548,-0.0477,-0.0281,-0.0127,0.0023,0.0252,0.023,0.0396,0.0439,0.0456,0.0463,0.0672,0.0724,0.0357,0.0356,0.0355,0.0354,0,-0.0818,-0.082,-0.0868,-0.0874,-0.088,-0.0906,-0.0886,-0.0884,-0.0811,-0.0757,-0.073,-0.0549,-0.0336,-0.0132,0.0116,0.0247,0.0551,0.0525,0.0537,0.0578,0.0843,0.0884,0.111,0.1213,0.0703,0.0706,0.0708,0,-0.0858,-0.0892,-0.0933,-0.0969,-0.0975,-0.1001,-0.1014,-0.0953,-0.0933,-0.0785,-0.0756,-0.0543,-0.0353,0.0031,0.0298,0.0578,0.0679,0.0759,0.0741,0.0881,0.0958,0.0976,0.1046,0.0823,0.0826,0.0828,0.083,0,-0.0928,-0.0938,-0.0977,-0.1059,-0.1093,-0.1125,-0.1126,-0.112,-0.102,-0.0929,-0.0747,-0.0578,-0.0191,0.0178,0.053,0.0685,0.0876,0.0815,0.0964,0.1077,0.1108,0.1218,0.0711,0.0851,0.0849,0.0847,0.0846,0.0845,-0.0965,-0.1016,-0.1071,-0.114,-0.1185,-0.1218,-0.1217,-0.116,-0.1082,-0.0862,-0.0734,-0.039,0.0068,0.0592,0.0778,0.1141,0.1081,0.1231,0.1272,0.1281,0.1378,0.0918,0.11,0.1099,0.1099,0.1098,0.1098,0,-0.1012,-0.1069,-0.1148,-0.1219,-0.1268,-0.1274,-0.1264,-0.119,-0.1048,-0.0775,-0.0536,0.0036,0.0491,0.0905,0.1384,0.1585,0.162,0.1663,0.1698,0.1751,0.136,0.1363,0.1607,0.1607,0.1606,0.1606,0.1606,0.1606,-0.1038,-0.1124,-0.1169,-0.1261,-0.1305,-0.1316,-0.1292,-0.1118,-0.0901,-0.0407,-0.0003,0.0296,0.0809,0.1495,0.1933,0.1968,0.2144,0.2115,0.2215,0.1934,0.1896,0.186,0.1878,0.2225,0.2226,0.2597,0.2601,0.2604]}],[{"header":{"parameterUnit":"m.s-1","parameterCategory":2,"la1":30.2991,"la2":30.254,"lo1":-89.0895,"lo2":-89.0444,"dy":0.0017,"dx":0.0017,"nx":28,"ny":28,"refTime":"2024-03-31T03:00:00:Z","depth":"2","parameterNumber":2,"parameterNumberName":"U-component_of_CURRENTS"},"data":[0,0,0,0,0,0,0,0,0,0,0,0,0,0,0,0,0,0,0,0,0,0,0,0,0,0,0,0,0,0,0,0,0,0,0,0,0,0,0,0,0,0,0,0,0,0,0,0,0,0,0,0,0,0,0,0,0,0,-0.271,-0.271,0,-0.275,-0.2751,-0.2751,-0.2768,-0.2768,-0.2768,-0.2768,-0.2809,-0.2809,-0.281,0,0,0,0,0,0,0,0,0,0,0,0,0,-0.2623,-0.2624,-0.271,-0.271,-0.2711,-0.275,-0.2751,-0.2751,-0.2768,-0.2768,-0.2768,-0.2769,-0.2808,-0.2809,-0.2811,0,0,0,0,0,0,0,0,0,0,0,0,0,-0.266,-0.2625,-0.271,-0.2726,-0.2727,-0.275,-0.2751,-0.2751,-0.2768,-0.2768,-0.2768,-0.2769,-0.2808,-0.2809,-0.2811,-0.2818,0,0,-0.2815,-0.2816,0,0,0,0,0,0,0,0,-0.2658,-0.2663,-0.2723,-0.2725,-0.2727,-0.2756,-0.2735,-0.2774,-0.2768,-0.2751,-0.2768,-0.2769,-0.2792,-0.2795,-0.28,-0.282,-0.2821,-0.2815,-0.2816,-0.2817,-0.2817,0,0,0,0,0,0,0,-0.2656,-0.2661,-0.2724,-0.2723,-0.2726,-0.2723,-0.2728,-0.2742,-0.2769,-0.2753,-0.2754,-0.2761,-0.2793,-0.2798,-0.2801,-0.2822,-0.2815,-0.2817,-0.2818,-0.2818,-0.2856,-0.2856,0,0,0,0,0,0,-0.2655,-0.2659,-0.2723,-0.2726,-0.2694,-0.2724,-0.273,-0.2745,-0.2769,-0.2773,-0.2761,-0.2762,-0.2796,-0.2799,-0.2802,-0.2815,-0.2817,-0.2818,-0.2819,-0.2855,-0.2856,-0.2856,0,0,0,0,0,0,-0.2653,-0.2661,-0.2721,-0.2694,-0.2702,-0.2726,-0.2742,-0.2746,-0.2764,-0.2776,-0.278,-0.2777,-0.2796,-0.28,-0.2822,-0.2817,-0.2819,-0.282,-0.2855,-0.2856,-0.2856,-0.2839,0,0,0,0,0,0,-0.2651,-0.266,-0.2669,-0.2694,-0.2703,-0.2743,-0.2742,-0.2747,-0.2768,-0.277,-0.2791,-0.2794,-0.2796,-0.2819,-0.2823,-0.2819,-0.2822,-0.2855,-0.2855,-0.2856,-0.284,-0.2839,-0.2838,0,0,0,0,0,-0.2648,-0.266,-0.2669,-0.2677,-0.2715,-0.2744,-0.2748,-0.2764,-0.2769,-0.2779,-0.2791,-0.2794,-0.2823,-0.2821,-0.2825,-0.2821,-0.2855,-0.2855,-0.2856,-0.284,-0.2839,-0.2838,0,0,0,0,0,0,-0.2621,-0.2664,-0.2674,-0.2697,-0.2722,-0.2747,-0.2755,-0.2771,-0.2789,-0.279,-0.2801,-0.2805,-0.282,-0.2827,-0.2825,-0.2833,-0.2837,-0.2838,-0.2824,-0.2823,-0.2822,-0.2812,-0.2823,0,0,0,0,0,-0.2621,-0.264,-0.268,-0.2693,-0.271,-0.2735,-0.2748,-0.2763,-0.2783,-0.2792,-0.2805,-0.2815,-0.2822,-0.2829,-0.2839,-0.2849,-0.2835,-0.2847,-0.2847,-0.2846,-0.2841,-0.2817,-0.2813,-0.2856,-0.2856,-0.2856,0,0,-0.261,-0.2636,-0.2645,-0.2688,-0.2706,-0.2728,-0.2743,-0.2767,-0.2779,-0.2793,-0.2808,-0.2818,-0.2826,-0.2832,-0.2839,-0.2838,-0.2825,-0.2846,-0.2845,-0.284,-0.2816,-0.2812,-0.2808,-0.2857,-0.2857,-0.2856,0,0,-0.2594,-0.2627,-0.2638,-0.2665,-0.2702,-0.2723,-0.2736,-0.2771,-0.2782,-0.2803,-0.2808,-0.2812,-0.2837,-0.2829,-0.283,-0.2833,-0.2824,-0.2843,-0.2827,-0.2804,-0.28,-0.2796,-0.2764,-0.2758,-0.2839,-0.2838,-0.2838,0,-0.2576,-0.2604,-0.2643,-0.2664,-0.2683,-0.2724,-0.274,-0.2759,-0.2793,-0.2798,-0.2807,-0.2822,-0.2827,-0.2821,-0.2818,-0.2828,-0.2816,-0.2829,-0.2801,-0.2797,-0.2793,-0.2762,-0.2755,-0.2838,-0.2838,-0.2838,-0.2838,0,-0.2571,-0.2598,-0.2607,-0.2649,-0.2676,-0.2697,-0.2736,-0.2758,-0.2778,-0.2792,-0.2801,-0.2805,-0.2811,-0.2811,-0.2816,-0.2795,-0.2794,-0.2804,-0.28,-0.2788,-0.2756,-0.2749,-0.2837,-0.2837,-0.2837,-0.2837,0,0,-0.2509,-0.2588,-0.259,-0.2613,-0.2672,-0.2693,-0.2718,-0.2749,-0.2763,-0.2781,-0.2787,-0.2784,-0.279,-0.2791,-0.2793,-0.277,-0.2727,-0.2777,-0.2776,-0.2738,-0.2671,-0.2581,-0.2564,-0.2736,-0.2735,-0.2734,-0.2656,0,-0.2487,-0.2526,-0.2571,-0.2602,-0.2628,-0.268,-0.2702,-0.2734,-0.276,-0.2778,-0.2775,-0.2784,-0.2782,-0.2785,-0.276,-0.275,-0.271,-0.2747,-0.2695,-0.2693,-0.2608,-0.2553,-0.2391,-0.23,-0.2649,-0.2648,-0.2647,0,-0.2455,-0.2494,-0.2526,-0.2594,-0.2609,-0.263,-0.2677,-0.2704,-0.274,-0.2761,-0.2766,-0.2779,-0.2757,-0.2758,-0.2701,-0.273,-0.2692,-0.2671,-0.2668,-0.2583,-0.2588,-0.2371,-0.2274,-0.2635,-0.2636,-0.2637,-0.2638,0,-0.2387,-0.2454,-0.248,-0.2503,-0.2587,-0.2602,-0.2639,-0.2687,-0.2709,-0.2746,-0.276,-0.2754,-0.2743,-0.2708,-0.2668,-0.2687,-0.26,-0.2621,-0.2494,-0.2488,-0.2336,-0.2318,-0.2554,-0.2554,-0.2554,-0.2555,-0.2555,0,-0.2345,-0.2363,-0.2451,-0.2467,-0.2488,-0.2562,-0.2582,-0.2624,-0.2678,-0.2692,-0.2738,-0.2733,-0.273,-0.2692,-0.2657,-0.2542,-0.2583,-0.2467,-0.2451,-0.2325,-0.2308,-0.2598,-0.2604,-0.2552,-0.2552,-0.2553,-0.2553,0,-0.2261,-0.2325,-0.2352,-0.2435,-0.2456,-0.2466,-0.2541,-0.2564,-0.2626,-0.2646,-0.2657,-0.27,-0.2646,-0.2622,-0.2558,-0.2503,-0.2426,-0.2372,-0.222,-0.2187,-0.2335,-0.2341,-0.2218,-0.2214,-0.2211,-0.2208,-0.2205,0,-0.222,-0.2227,-0.23,-0.2317,-0.235,-0.2388,-0.2419,-0.2511,-0.2541,-0.261,-0.2609,-0.2591,-0.2537,-0.2416,-0.2323,-0.2212,-0.2307,-0.2008,-0.2002,-0.2297,-0.2295,-0.2307,-0.2318,-0.1797,-0.1791,-0.1786,-0.1783,0,-0.2126,-0.2149,-0.2176,-0.221,-0.2242,-0.2269,-0.2321,-0.2337,-0.2442,-0.2455,-0.2448,-0.2412,-0.2318,-0.2124,-0.2004,-0.1933,-0.2018,-0.191,-0.2236,-0.1913,-0.1894,-0.1895,-0.192,-0.1742,-0.1746,-0.1749,-0.1751,-0.1753,-0.2031,-0.2023,-0.2057,-0.2071,-0.2111,-0.2114,-0.208,-0.2152,-0.215,-0.213,-0.2207,-0.2084,-0.2066,-0.1768,-0.1664,-0.1583,-0.1723,-0.1656,-0.1673,-0.1693,-0.1664,-0.1641,-0.1435,-0.1437,-0.1439,-0.1441,-0.1442,0,-0.19,-0.1908,-0.192,-0.1925,-0.1901,-0.1968,-0.1984,-0.1919,-0.1857,-0.1872,-0.1814,-0.1587,-0.1462,-0.1447,-0.125,-0.1211,-0.1224,-0.1169,-0.1194,-0.1235,-0.1271,-0.1223,-0.0875,-0.0874,-0.0872,-0.087,0,0,-0.1831,-0.179,-0.1794,-0.1696,-0.1702,-0.1603,-0.1568,-0.1497,-0.146,-0.1329,-0.1263,-0.1351,-0.1387,-0.1123,-0.1068,-0.0933,-0.1073,-0.0886,-0.1341,-0.141,-0.1444,-0.1551,-0.1521,0,0,0,0,0]},{"header":{"parameterUnit":"m.s-1","parameterCategory":2,"la1":30.2991,"la2":30.254,"lo1":-89.0895,"lo2":-89.0444,"dy":0.0017,"dx":0.0017,"nx":28,"ny":28,"refTime":"2024-03-31T03:00:00:Z","depth":"2","parameterNumber":3,"parameterNumberName":"V-component_of_CURRENTS"},"data":[0,0,0,0,0,0,0,0,0,0,0,0,0,0,0,0,0,0,0,0,0,0,0,0,0,0,0,0,0,0,0,0,0,0,0,0,0,0,0,0,0,0,0,0,0,0,0,0,0,0,0,0,0,0,0,0,0,0,-0.0372,-0.0372,0,-0.0305,-0.0304,-0.0303,-0.0236,-0.0235,-0.0235,-0.0234,-0.0095,-0.0092,-0.0089,0,0,0,0,0,0,0,0,0,0,0,0,0,-0.04,-0.04,-0.0372,-0.0372,-0.0371,-0.0305,-0.0304,-0.0303,-0.0236,-0.0235,-0.0234,-0.0234,-0.0096,-0.0092,-0.0088,0,0,0,0,0,0,0,0,0,0,0,0,0,-0.0364,-0.04,-0.0372,-0.0331,-0.0326,-0.0305,-0.0304,-0.0302,-0.0236,-0.0235,-0.0234,-0.0233,-0.0097,-0.0092,-0.0088,-0.0083,0,0,-0.0074,-0.0072,0,0,0,0,0,0,0,0,-0.0366,-0.0363,-0.0338,-0.0334,-0.0329,-0.0279,-0.0262,-0.0226,-0.0237,-0.0269,-0.0234,-0.0233,-0.0151,-0.0142,-0.0131,-0.0076,-0.007,-0.0074,-0.0071,-0.0069,-0.0068,0,0,0,0,0,0,0,-0.0369,-0.0365,-0.0344,-0.0337,-0.0332,-0.03,-0.0294,-0.0255,-0.0215,-0.0266,-0.0262,-0.0257,-0.0148,-0.0136,-0.0127,-0.0068,-0.0074,-0.007,-0.0067,-0.0065,0.0031,0.0031,0,0,0,0,0,0,-0.0384,-0.0368,-0.0346,-0.0342,-0.0347,-0.0301,-0.0294,-0.0295,-0.0217,-0.0205,-0.0258,-0.0254,-0.0144,-0.0132,-0.0122,-0.0084,-0.0069,-0.0065,-0.0062,0.0032,0.0031,0.0031,0,0,0,0,0,0,-0.0385,-0.0383,-0.0349,-0.0354,-0.0348,-0.0302,-0.0303,-0.0294,-0.0277,-0.0211,-0.0197,-0.0249,-0.0143,-0.0128,-0.0085,-0.0079,-0.0063,-0.0059,0.0032,0.0032,0.0031,-0.0026,0,0,0,0,0,0,-0.0386,-0.0384,-0.039,-0.0356,-0.0348,-0.0337,-0.0304,-0.0294,-0.0277,-0.0271,-0.02,-0.0186,-0.0141,-0.0093,-0.0081,-0.0073,-0.0055,0.0032,0.0032,0.0031,-0.0024,-0.0028,-0.0032,0,0,0,0,0,-0.0387,-0.0401,-0.0391,-0.0388,-0.0358,-0.0338,-0.0331,-0.0293,-0.0277,-0.0273,-0.0226,-0.0188,-0.0086,-0.0089,-0.0076,-0.0066,0.0032,0.0032,0.0031,-0.0022,-0.0028,-0.0032,0,0,0,0,0,0,-0.0418,-0.0395,-0.0383,-0.0389,-0.0367,-0.0327,-0.0324,-0.03,-0.0261,-0.0254,-0.0191,-0.0174,-0.0133,-0.0097,-0.0103,-0.004,-0.002,-0.0018,-0.0066,-0.007,-0.0074,-0.0084,-0.0051,0,0,0,0,0,-0.043,-0.0434,-0.0404,-0.0411,-0.0402,-0.0365,-0.0353,-0.0329,-0.0292,-0.0274,-0.0225,-0.0173,-0.0126,-0.0097,-0.0053,-0.0022,0.0021,-0.0006,-0.001,-0.0014,-0.0013,0.0049,0.0051,0.003,0.003,0.003,0,0,-0.0445,-0.0434,-0.0436,-0.0418,-0.0398,-0.0392,-0.0355,-0.0342,-0.033,-0.0265,-0.0235,-0.0187,-0.0122,-0.0084,-0.0062,-0.005,0.0013,-0.0014,-0.0018,-0.0015,0.0049,0.0051,0.0053,0.003,0.003,0.003,0,0,-0.048,-0.0467,-0.048,-0.0465,-0.0442,-0.0416,-0.0416,-0.0378,-0.0352,-0.0324,-0.0269,-0.022,-0.0158,-0.0104,-0.0069,-0.007,-0.0013,-0.0058,-0.0079,-0.0019,-0.0017,-0.0014,0.0035,0.0043,-0.0057,-0.0057,-0.0057,0,-0.05,-0.0511,-0.0481,-0.0487,-0.0479,-0.0431,-0.0439,-0.0408,-0.036,-0.0337,-0.0322,-0.0218,-0.0164,-0.0102,-0.01,-0.0077,-0.0039,-0.0067,-0.0024,-0.0021,-0.0017,0.0034,0.0043,-0.0059,-0.0059,-0.0059,-0.0059,0,-0.0541,-0.0546,-0.0553,-0.0544,-0.0529,-0.0529,-0.0484,-0.0463,-0.043,-0.039,-0.033,-0.0259,-0.0194,-0.0169,-0.0132,-0.0078,-0.0059,-0.004,-0.0014,-0.0019,0.0035,0.0046,-0.0063,-0.0062,-0.0062,-0.0061,0,0,-0.0592,-0.0586,-0.0586,-0.0592,-0.0559,-0.0554,-0.0531,-0.0492,-0.0473,-0.0415,-0.0379,-0.0294,-0.025,-0.0209,-0.0151,-0.0096,-0.0038,-0.0063,-0.0059,-0.0017,0.0089,0.0124,0.014,-0.0012,-0.001,-0.0009,0.0113,0,-0.0633,-0.0667,-0.064,-0.0658,-0.067,-0.0617,-0.0599,-0.0554,-0.0504,-0.0456,-0.0366,-0.0313,-0.0265,-0.0235,-0.0171,-0.0068,-0.0012,-0.0073,0.009,0.0095,0.0125,0.0153,0.0125,0.0234,0.0124,0.0126,0.0127,0,-0.0678,-0.0695,-0.0729,-0.072,-0.0717,-0.0714,-0.0675,-0.0652,-0.0565,-0.0523,-0.0446,-0.0374,-0.0274,-0.0243,-0.0069,-0.0112,-0.002,0.0056,0.0063,0.0126,0.0151,0.0223,0.0257,0.0145,0.0144,0.0142,0.0141,0,-0.0738,-0.075,-0.0782,-0.0781,-0.0764,-0.076,-0.0743,-0.0675,-0.0652,-0.0563,-0.0531,-0.0404,-0.0335,-0.0206,-0.0044,-0.0055,0.0145,0.0151,0.027,0.0273,0.0298,0.0301,0.0268,0.0268,0.0268,0.0267,0.0267,0,-0.0794,-0.0815,-0.0816,-0.0835,-0.0864,-0.0824,-0.0826,-0.0787,-0.0719,-0.0683,-0.0573,-0.0508,-0.0323,-0.0184,-0.0049,0.0151,0.0147,0.0278,0.0315,0.0276,0.0276,0.0235,0.023,0.0272,0.0271,0.027,0.0269,0,-0.0852,-0.0854,-0.089,-0.0892,-0.0897,-0.0917,-0.0897,-0.089,-0.0819,-0.0767,-0.0741,-0.0572,-0.0383,-0.0196,0.0033,0.015,0.0329,0.0397,0.0335,0.0363,0.0416,0.0406,0.0543,0.0545,0.0547,0.0549,0.055,0,-0.0886,-0.0913,-0.0946,-0.0978,-0.0982,-0.1002,-0.1013,-0.0954,-0.0932,-0.0797,-0.077,-0.058,-0.0417,-0.0071,0.0164,0.0415,0.04,0.052,0.0499,0.0426,0.0448,0.0434,0.0422,0.0506,0.0507,0.0507,0.0508,0,-0.0944,-0.0952,-0.0984,-0.1057,-0.1087,-0.1113,-0.1113,-0.1107,-0.1015,-0.0932,-0.0777,-0.0633,-0.0297,-0.0001,0.031,0.0441,0.0477,0.0545,0.0507,0.0435,0.04,0.0418,0.0405,0.0515,0.0514,0.0514,0.0513,0.0513,-0.0976,-0.1019,-0.1067,-0.1128,-0.117,-0.1201,-0.1203,-0.1158,-0.1091,-0.0926,-0.0788,-0.0522,-0.0266,0.0208,0.0415,0.0594,0.0584,0.0623,0.0617,0.0611,0.058,0.055,0.0687,0.0687,0.0687,0.0687,0.0688,0,-0.1017,-0.1067,-0.1136,-0.1201,-0.1248,-0.1254,-0.1248,-0.1203,-0.1095,-0.091,-0.071,-0.0381,-0.004,0.0218,0.0525,0.0699,0.0664,0.0706,0.063,0.0622,0.0615,0.0581,0.0691,0.0691,0.0692,0.0692,0,0,-0.104,-0.1115,-0.1154,-0.1244,-0.1287,-0.1309,-0.1294,-0.119,-0.1049,-0.0838,-0.0617,-0.0336,-0.0017,0.0204,0.0411,0.0565,0.0537,0.0564,0.0541,0.0416,0.0408,0.0548,0.0485,0,0,0,0,0]}],[{"header":{"parameterUnit":"m.s-1","parameterCategory":2,"la1":30.2991,"la2":30.254,"lo1":-89.0895,"lo2":-89.0444,"dy":0.0017,"dx":0.0017,"nx":28,"ny":28,"refTime":"2024-03-31T03:00:00:Z","depth":"4","parameterNumber":2,"parameterNumberName":"U-component_of_CURRENTS"},"data":[0,0,0,0,0,0,0,0,0,0,0,0,0,0,0,0,0,0,0,0,0,0,0,0,0,0,0,0,0,0,0,0,0,0,0,0,0,0,0,0,0,0,0,0,0,0,0,0,0,0,0,0,0,0,0,0,0,0,-0.1796,-0.1797,0,-0.1852,-0.1853,-0.1854,-0.1894,-0.1895,-0.1895,-0.1895,-0.1991,-0.1993,-0.1995,0,0,0,0,0,0,0,0,0,0,0,0,0,-0.1722,-0.1723,-0.1796,-0.1797,-0.1797,-0.1852,-0.1853,-0.1854,-0.1894,-0.1895,-0.1895,-0.1896,-0.199,-0.1993,-0.1995,0,0,0,0,0,0,0,0,0,0,0,0,0,-0.1764,-0.1724,-0.1796,-0.1824,-0.1827,-0.1852,-0.1853,-0.1854,-0.1894,-0.1895,-0.1895,-0.1896,-0.1989,-0.1992,-0.1996,-0.2006,0,0,-0.2006,-0.2007,0,0,0,0,0,0,0,0,-0.1761,-0.1767,-0.1819,-0.1822,-0.1826,-0.1867,-0.1862,-0.1907,-0.1894,-0.1869,-0.1895,-0.1896,-0.1952,-0.1959,-0.1968,-0.2011,-0.2015,-0.2006,-0.2008,-0.201,-0.201,0,0,0,0,0,0,0,-0.1758,-0.1764,-0.1818,-0.182,-0.1824,-0.1834,-0.184,-0.1871,-0.1908,-0.1871,-0.1874,-0.188,-0.1955,-0.1964,-0.197,-0.2016,-0.2006,-0.2009,-0.2011,-0.2012,-0.2114,-0.2114,0,0,0,0,0,0,-0.1751,-0.1762,-0.1817,-0.182,-0.1794,-0.1835,-0.1842,-0.1853,-0.1907,-0.1915,-0.188,-0.1882,-0.1959,-0.1967,-0.1974,-0.2057,-0.201,-0.2013,-0.2015,-0.2113,-0.2114,-0.2115,0,0,0,0,0,0,-0.1749,-0.1756,-0.1814,-0.1792,-0.18,-0.1835,-0.1848,-0.1854,-0.1899,-0.1913,-0.1922,-0.1921,-0.1959,-0.1969,-0.2028,-0.2059,-0.2014,-0.2017,-0.2112,-0.2113,-0.2114,-0.218,0,0,0,0,0,0,-0.1747,-0.1755,-0.1778,-0.1791,-0.1801,-0.1853,-0.1847,-0.1855,-0.1899,-0.1904,-0.1951,-0.1958,-0.196,-0.2023,-0.2031,-0.2062,-0.202,-0.2111,-0.2113,-0.2114,-0.2177,-0.2184,-0.2189,0,0,0,0,0,-0.1744,-0.1771,-0.1779,-0.1787,-0.1826,-0.1855,-0.1862,-0.1887,-0.1901,-0.1928,-0.1958,-0.1959,-0.2036,-0.2027,-0.2036,-0.2069,-0.2111,-0.2112,-0.2114,-0.2175,-0.2182,-0.2189,0,0,0,0,0,0,-0.1753,-0.1778,-0.1787,-0.1821,-0.1847,-0.1862,-0.1893,-0.1909,-0.1954,-0.1969,-0.1981,-0.1991,-0.2049,-0.2048,-0.2038,-0.2097,-0.2068,-0.2072,-0.2111,-0.2119,-0.2124,-0.2107,-0.2023,0,0,0,0,0,-0.1763,-0.1789,-0.1812,-0.1841,-0.1859,-0.1883,-0.1905,-0.1924,-0.1954,-0.1976,-0.2008,-0.2034,-0.2056,-0.2081,-0.2101,-0.2147,-0.212,-0.2168,-0.2173,-0.2178,-0.2168,-0.216,-0.2164,-0.212,-0.212,-0.212,0,0,-0.1773,-0.179,-0.1806,-0.1845,-0.1868,-0.1896,-0.19,-0.1944,-0.1972,-0.1979,-0.2046,-0.2066,-0.2073,-0.2117,-0.2142,-0.2128,-0.2177,-0.218,-0.2185,-0.2172,-0.2162,-0.2166,-0.217,-0.2121,-0.2121,-0.212,0,0,-0.1786,-0.1825,-0.1845,-0.1873,-0.1915,-0.1932,-0.1953,-0.1994,-0.2024,-0.2081,-0.2085,-0.2122,-0.2174,-0.2175,-0.2181,-0.223,-0.2208,-0.2244,-0.2266,-0.2259,-0.2262,-0.2265,-0.2236,-0.2235,-0.2246,-0.2247,-0.2247,0,-0.1795,-0.1824,-0.1857,-0.1884,-0.1911,-0.1952,-0.198,-0.2015,-0.2072,-0.2095,-0.2113,-0.2173,-0.2191,-0.2217,-0.2234,-0.2244,-0.2229,-0.2245,-0.2267,-0.2269,-0.227,-0.224,-0.2238,-0.225,-0.225,-0.2249,-0.2249,0,-0.1807,-0.185,-0.187,-0.1913,-0.195,-0.1988,-0.2033,-0.2083,-0.2129,-0.2152,-0.2211,-0.2234,-0.226,-0.2277,-0.2276,-0.2299,-0.2281,-0.2277,-0.225,-0.2279,-0.2245,-0.2242,-0.2255,-0.2254,-0.2253,-0.2252,0,0,-0.1767,-0.1859,-0.1868,-0.1901,-0.1973,-0.2,-0.2063,-0.2115,-0.2154,-0.2214,-0.2252,-0.2295,-0.231,-0.2314,-0.2322,-0.2322,-0.2328,-0.2312,-0.231,-0.2285,-0.2301,-0.2147,-0.2129,-0.2338,-0.2338,-0.2338,-0.2273,0,-0.1765,-0.1822,-0.1869,-0.1933,-0.1968,-0.2034,-0.2086,-0.2143,-0.2197,-0.2249,-0.2276,-0.2318,-0.2322,-0.2345,-0.2348,-0.2337,-0.2325,-0.2345,-0.2275,-0.2272,-0.2133,-0.2121,-0.2338,-0.2271,-0.227,-0.2269,-0.2269,0,-0.1744,-0.1793,-0.1856,-0.195,-0.1972,-0.202,-0.2109,-0.2158,-0.2233,-0.2275,-0.2317,-0.2341,-0.236,-0.236,-0.2341,-0.2359,-0.2331,-0.2314,-0.2311,-0.2136,-0.2111,-0.2235,-0.2264,-0.2264,-0.2264,-0.2265,-0.2265,0,-0.1682,-0.1777,-0.1832,-0.1865,-0.1977,-0.2024,-0.2083,-0.2167,-0.2209,-0.2288,-0.2319,-0.2352,-0.2367,-0.2351,-0.2323,-0.234,-0.2283,-0.2297,-0.2123,-0.2112,-0.2245,-0.2243,-0.2263,-0.2263,-0.2263,-0.2263,-0.2264,0,-0.1641,-0.1688,-0.1817,-0.1847,-0.1913,-0.2002,-0.207,-0.2135,-0.2218,-0.2249,-0.2323,-0.2331,-0.2368,-0.2346,-0.2319,-0.2194,-0.2274,-0.2104,-0.2077,-0.2274,-0.2276,-0.2243,-0.2241,-0.2261,-0.2262,-0.2262,-0.2262,0,-0.1558,-0.1646,-0.1714,-0.1844,-0.1886,-0.1932,-0.2052,-0.2094,-0.2187,-0.2226,-0.225,-0.2312,-0.2271,-0.2271,-0.2233,-0.2158,-0.2079,-0.2016,-0.2207,-0.2196,-0.1916,-0.1919,-0.1807,-0.1801,-0.1796,-0.1791,-0.1787,0,-0.1517,-0.1548,-0.1688,-0.1732,-0.1797,-0.1883,-0.1939,-0.2059,-0.2095,-0.2186,-0.2183,-0.2191,-0.2205,-0.2006,-0.2041,-0.1946,-0.1927,-0.1876,-0.1906,-0.188,-0.1866,-0.1877,-0.1887,-0.1779,-0.1778,-0.1776,-0.1775,0,-0.1431,-0.1496,-0.1554,-0.164,-0.1714,-0.1772,-0.1858,-0.1867,-0.1986,-0.2095,-0.2037,-0.1993,-0.1935,-0.1886,-0.1815,-0.1763,-0.1908,-0.1822,-0.1833,-0.186,-0.1845,-0.1839,-0.1855,-0.1757,-0.176,-0.1761,-0.1762,0,-0.1361,-0.1379,-0.1463,-0.1518,-0.1605,-0.162,-0.1686,-0.1714,-0.1755,-0.187,-0.1844,-0.185,-0.191,-0.1787,-0.1732,-0.1653,-0.1632,-0.1584,-0.1608,-0.1628,-0.1599,-0.1556,-0.1332,0,0,0,0,0,-0.128,-0.1285,-0.1333,-0.1384,-0.1463,-0.1498,-0.1612,-0.1683,-0.1804,-0.1711,-0.1767,-0.1704,-0.1608,-0.1621,-0.1495,-0.165,-0.1642,-0.1499,-0.1603,-0.1656,-0.1677,-0.166,0,0,0,0,0,0,-0.1227,-0.1268,-0.1282,-0.1247,-0.1253,-0.1311,-0.1369,-0.1459,-0.1416,-0.1544,-0.1493,-0.1589,-0.1515,-0.163,-0.1451,-0.1453,-0.148,-0.1522,-0.1517,-0.1645,-0.1664,-0.168,-0.167,0,0,0,0,0]},{"header":{"parameterUnit":"m.s-1","parameterCategory":2,"la1":30.2991,"la2":30.254,"lo1":-89.0895,"lo2":-89.0444,"dy":0.0017,"dx":0.0017,"nx":28,"ny":28,"refTime":"2024-03-31T03:00:00:Z","depth":"4","parameterNumber":3,"parameterNumberName":"V-component_of_CURRENTS"},"data":[0,0,0,0,0,0,0,0,0,0,0,0,0,0,0,0,0,0,0,0,0,0,0,0,0,0,0,0,0,0,0,0,0,0,0,0,0,0,0,0,0,0,0,0,0,0,0,0,0,0,0,0,0,0,0,0,0,0,-0.0346,-0.0346,0,-0.0316,-0.0315,-0.0315,-0.0285,-0.0285,-0.0284,-0.0284,-0.0202,-0.0201,-0.0199,0,0,0,0,0,0,0,0,0,0,0,0,0,-0.0344,-0.0345,-0.0346,-0.0346,-0.0346,-0.0316,-0.0315,-0.0315,-0.0285,-0.0285,-0.0284,-0.0284,-0.0203,-0.0201,-0.0199,0,0,0,0,0,0,0,0,0,0,0,0,0,-0.0332,-0.0345,-0.0346,-0.0328,-0.0326,-0.0316,-0.0315,-0.0315,-0.0285,-0.0285,-0.0284,-0.0284,-0.0204,-0.0201,-0.0198,-0.019,0,0,-0.019,-0.0188,0,0,0,0,0,0,0,0,-0.0333,-0.0332,-0.0331,-0.0329,-0.0327,-0.0304,-0.0285,-0.0271,-0.0285,-0.03,-0.0284,-0.0283,-0.0233,-0.0228,-0.0222,-0.0186,-0.0183,-0.0189,-0.0188,-0.0186,-0.0186,0,0,0,0,0,0,0,-0.0334,-0.0333,-0.0333,-0.0331,-0.0328,-0.0309,-0.0307,-0.0282,-0.0268,-0.0298,-0.0296,-0.0295,-0.0231,-0.0225,-0.022,-0.0181,-0.0189,-0.0187,-0.0185,-0.0184,-0.0137,-0.0138,0,0,0,0,0,0,-0.0342,-0.0334,-0.0334,-0.0333,-0.033,-0.031,-0.0308,-0.0311,-0.0269,-0.0263,-0.0295,-0.0293,-0.023,-0.0223,-0.0217,-0.0191,-0.0186,-0.0184,-0.0182,-0.0137,-0.0137,-0.0138,0,0,0,0,0,0,-0.0342,-0.0342,-0.0336,-0.0333,-0.0331,-0.0311,-0.0315,-0.0311,-0.0306,-0.0267,-0.0259,-0.0295,-0.0229,-0.0221,-0.0199,-0.0188,-0.0183,-0.018,-0.0136,-0.0137,-0.0137,-0.0147,0,0,0,0,0,0,-0.0342,-0.0343,-0.035,-0.0334,-0.0331,-0.0333,-0.0316,-0.0311,-0.0306,-0.0304,-0.0264,-0.0256,-0.0228,-0.0203,-0.0196,-0.0184,-0.0178,-0.0136,-0.0136,-0.0137,-0.0146,-0.0148,-0.0149,0,0,0,0,0,-0.0342,-0.0354,-0.0351,-0.0351,-0.0342,-0.0333,-0.033,-0.0313,-0.0307,-0.0307,-0.0282,-0.0257,-0.0203,-0.0201,-0.0193,-0.0179,-0.0135,-0.0136,-0.0137,-0.0145,-0.0147,-0.0149,0,0,0,0,0,0,-0.0358,-0.0351,-0.0348,-0.0358,-0.0348,-0.0328,-0.033,-0.0319,-0.03,-0.0299,-0.0261,-0.0251,-0.0227,-0.021,-0.0209,-0.0172,-0.0166,-0.0165,-0.0175,-0.0177,-0.0178,-0.0182,-0.0175,0,0,0,0,0,-0.0366,-0.0374,-0.0361,-0.0371,-0.0368,-0.0351,-0.0347,-0.0336,-0.0317,-0.0309,-0.0282,-0.0255,-0.0225,-0.0208,-0.0184,-0.0163,-0.013,-0.0152,-0.0153,-0.0155,-0.0154,-0.0091,-0.0086,-0.0141,-0.0141,-0.0141,0,0,-0.0376,-0.0374,-0.0379,-0.0375,-0.0368,-0.0367,-0.0347,-0.0345,-0.0339,-0.0303,-0.0289,-0.0259,-0.0223,-0.0198,-0.0185,-0.018,-0.0125,-0.0156,-0.0157,-0.0155,-0.0092,-0.0086,-0.0081,-0.0142,-0.0142,-0.0141,0,0,-0.0399,-0.0398,-0.0412,-0.0406,-0.0399,-0.0385,-0.0387,-0.0369,-0.0355,-0.0342,-0.0309,-0.0273,-0.0244,-0.0202,-0.018,-0.0179,-0.0137,-0.0179,-0.0182,-0.0121,-0.0115,-0.011,-0.0068,-0.0059,-0.0177,-0.0177,-0.0177,0,-0.0413,-0.0427,-0.0413,-0.0422,-0.042,-0.0395,-0.0404,-0.0386,-0.0363,-0.0346,-0.0343,-0.0276,-0.0241,-0.0189,-0.0188,-0.0178,-0.0148,-0.0173,-0.0121,-0.0115,-0.0109,-0.0067,-0.0057,-0.0177,-0.0177,-0.0177,-0.0177,0,-0.0443,-0.0453,-0.046,-0.0462,-0.0456,-0.0461,-0.0435,-0.0424,-0.0406,-0.038,-0.0336,-0.0287,-0.0244,-0.0225,-0.0204,-0.0147,-0.0142,-0.0129,-0.011,-0.0103,-0.0061,-0.0049,-0.0178,-0.0178,-0.0178,-0.0177,0,0,-0.0475,-0.0482,-0.0484,-0.0493,-0.0479,-0.0479,-0.0465,-0.0439,-0.0426,-0.0388,-0.0358,-0.0295,-0.0262,-0.0236,-0.0195,-0.0139,-0.0069,-0.0122,-0.0118,-0.0072,0.0053,0.0036,0.0047,-0.0045,-0.0043,-0.0042,0.0065,0,-0.0504,-0.0535,-0.0522,-0.0541,-0.0553,-0.0522,-0.0511,-0.0481,-0.0447,-0.0411,-0.0338,-0.03,-0.0267,-0.0245,-0.018,-0.0099,-0.004,-0.01,0.0031,0.0035,0.0027,0.0059,-0.0036,0.0073,0.0076,0.0078,0.0079,0,-0.0533,-0.0551,-0.0583,-0.0584,-0.0585,-0.0589,-0.0565,-0.0551,-0.0484,-0.0453,-0.039,-0.0337,-0.0246,-0.0226,-0.0071,-0.0113,-0.0034,0.0031,0.0037,0.0033,0.0039,0.0065,0.01,0.0098,0.0096,0.0095,0.0094,0,-0.0568,-0.0587,-0.0618,-0.0621,-0.0619,-0.0623,-0.0617,-0.0569,-0.0552,-0.048,-0.0455,-0.0344,-0.0289,-0.0173,-0.0044,-0.0053,0.0124,0.0131,0.0193,0.0192,0.018,0.0173,0.0246,0.0246,0.0245,0.0245,0.0245,0,-0.0599,-0.0621,-0.0643,-0.0661,-0.0692,-0.067,-0.0679,-0.0652,-0.0602,-0.0573,-0.0485,-0.0432,-0.0272,-0.0156,-0.0042,0.0107,0.0131,0.0201,0.0226,0.017,0.0161,0.0188,0.0179,0.0249,0.0248,0.0248,0.0247,0,-0.0626,-0.0642,-0.068,-0.0701,-0.0714,-0.0736,-0.0739,-0.0734,-0.0684,-0.0642,-0.0621,-0.0484,-0.0331,-0.0176,0.0024,0.0105,0.0248,0.0295,0.0215,0.0232,0.0274,0.0264,0.0378,0.0378,0.0379,0.0379,0.0379,0,-0.0641,-0.0667,-0.0722,-0.0758,-0.0774,-0.0805,-0.0822,-0.0786,-0.0768,-0.0669,-0.0643,-0.0496,-0.0391,-0.0117,0.0036,0.0252,0.0278,0.0343,0.032,0.0279,0.0292,0.0281,0.0271,0.038,0.038,0.038,0.038,0,-0.0666,-0.0692,-0.0726,-0.0807,-0.0848,-0.0879,-0.0894,-0.0884,-0.082,-0.0778,-0.0635,-0.0486,-0.0311,-0.0109,0.0056,0.0209,0.0296,0.0348,0.0348,0.0327,0.0283,0.0293,0.0282,0.0381,0.0381,0.0381,0.0381,0,-0.0681,-0.0718,-0.0776,-0.0838,-0.09,-0.0929,-0.0933,-0.0886,-0.0852,-0.0727,-0.068,-0.0482,-0.0358,-0.013,0.0022,0.0168,0.0202,0.024,0.0246,0.0246,0.0169,0.0091,0.0163,0,0,0,0,0,-0.0689,-0.0735,-0.0803,-0.0868,-0.0929,-0.0957,-0.0966,-0.0949,-0.0886,-0.0787,-0.0724,-0.0554,-0.0296,-0.018,-0.0034,0.0003,0.02,0.0174,0.0239,0.0389,0.0387,0.0317,0,0,0,0,0,0,-0.0697,-0.0765,-0.0801,-0.0876,-0.0923,-0.0975,-0.0979,-0.0941,-0.0866,-0.0783,-0.064,-0.0536,-0.0287,-0.0379,-0.0036,0.0008,0.0065,0.0303,0.0306,0.039,0.0388,0.0387,0.0314,0,0,0,0,0]}]]